Location: Wellington
(41.3000°S, 174.7830°E)
Time: 17:35:03
(UTC+13:00)

Cosmos 2263 Rocket - Pass Details

Date: 24 January 2019
Orbit: 824 x 848 km, 71.0° (Epoch: 23 October)

Event Time Altitude Azimuth Distance (km) Brightness Sun altitude
Rises 21:32:24 0° 200° (SSW) 3,412 6.3 -7.8°
Reaches altitude 10° 21:34:56 10° 194° (SSW) 2,475 5.4 -8.2°
Maximum altitude 21:40:28 50° 118° (ESE) 1,067 2.6 -9.1°
Enters shadow 21:45:34 12° 44° (NE) 2,322 3.8 -9.8°
